Regional Weather Roundup
Issued by NWS

Home | Current Version | Previous Version | Graphics & Text | Print | Product List | Glossary Off
Versions: 1 2 3 4 5 6 7 8 9 10 11 12 13 14 15 16 17 18 19 20 21 22 23 24 25 26 27 28 29 30 31 32 33 34 35 36 37 38 39 40 41 42 43 44 45 46 47 48 49 50

000
ASUS43 KMKX 222000
RWRWI

WISCONSIN REGIONAL WEATHER ROUNDUP
NATIONAL WEATHER SERVICE MILWAUKEE/SULLIVAN WI
200 PM CST WED FEB 22 2017

NOTE: "FAIR" INDICATES FEW OR NO CLOUDS BELOW 12,000 FEET WITH NO
SIGNIFICANT WEATHER AND/OR OBSTRUCTIONS TO VISIBILITY.

WIZ001-002-006>008-014>016-023>028-222100-
NORTHWEST WISCONSIN

CITY           SKY/WX    TMP DP  RH WIND       PRES   REMARKS
SUPERIOR ARPT  CLOUDY    44  36  73 E12       29.60F
ASHLAND        CLOUDY    43  35  73 N9        29.62S
HAYWARD        PTSUNNY   47  43  86 NE8       29.55F
SIREN          CLOUDY    46  46  98 NE5       29.56S
CUMBERLAND     CLOUDY    46  43  87 E5        29.53F
RICE LAKE      CLOUDY    50  44  79 CALM      29.53F
CHETEK         CLOUDY    51  43  73 E8        29.52F
LADYSMITH      CLOUDY    50  41  70 NE3       29.58F
EAU CLAIRE     NOT AVBL
MENOMONIE      CLOUDY    52  42  68 SE9       29.53F
NEW RICHMOND   CLOUDY    54  43  66 CALM      29.53F
OSCEOLA        CLOUDY    50  49  97 NW7       29.57S
$$

WIZ003>005-009-010-017-018-222100-
NORTH CENTRAL WISCONSIN

CITY           SKY/WX    TMP DP  RH WIND       PRES   REMARKS
MANITOWISH WTR RAIN      42  42 100 CALM      29.57F
ARBOR VITAE    CLOUDY    49  42  75 N5          N/A
WOODRUFF       CLOUDY    49  42  75 N5          N/A
RHINELANDER    CLOUDY    53  40  61 NW7       29.56F
EAGLE RIVER    CLOUDY    50  38  64 N6        29.56F
LAND O LAKES   CLOUDY    46  40  78 N6        29.58F
PHILLIPS       DRIZZLE   47  44  87 NE5       29.56S
TOMAHAWK       MOSUNNY   53  39  59 N6        29.56S
MEDFORD        CLOUDY    51  40  66 SW3       29.56R
MERRILL        NOT AVBL
$$

WIZ029-030-035-036-043>047-222100-
CENTRAL WISCONSIN

CITY           SKY/WX    TMP DP  RH WIND       PRES   REMARKS
WAUSAU         MOSUNNY   55  37  50 SW6       29.54S
MOSINEE        PTSUNNY   55  37  50 VRB3      29.56F
MARSHFIELD     CLOUDY    57  39  51 W8        29.55S
STEVENS POINT  CLOUDY    57  35  43 SW10      29.56R
WAUPACA        SUNNY     69  38  33 W6        29.53F
WAUTOMA        SUNNY     67  42  40 SW13      29.53F
WISC RAPIDS    CLOUDY    58  37  45 W9        29.55F
CAMP DOUGLAS   NOT AVBL
$$

WIZ011>013-019>022-031-037>040-048>050-222100-
NORTHEAST WISCONSIN

CITY           SKY/WX    TMP DP  RH WIND       PRES   REMARKS
ANTIGO         MOSUNNY   53  40  60 SW5       29.55F
SHAWANO        MOSUNNY   61  43  51 SW5       29.54F
OCONTO         CLOUDY    60  44  55 SE5       29.53F
STURGEON BAY   PTSUNNY   51  45  79 S8        29.55F
GREEN BAY      SUNNY     63  51  65 SW10      29.53F
MANITOWOC      NOT AVBL
APPLETON       PTSUNNY   64  43  45 SW13      29.52F
CLINTONVILLE   SUNNY     61  43  51 W3        29.53F
OSHKOSH        SUNNY     65  48  54 SW18G26   29.53F
$$

WIZ032>034-041-042-053>061-222100-
SOUTHWEST WISCONSIN

CITY           SKY/WX    TMP DP  RH WIND       PRES   REMARKS
LA CROSSE      CLOUDY    60  39  45 S5        29.54F
SPARTA         CLOUDY    59  39  47 NW8       29.54F
VIROQUA        CLOUDY    60  39  46 SW10      29.56S
BOSCOBEL       CLOUDY    66  42  41 SW8       29.55F
PRAIRIE DU CHI MOSUNNY   64  40  40 SW5       29.55F
PLATTEVILLE    SUNNY     69  50  50 S20       29.58F
$$

WIZ056-057-062-063-064-067-068-222100-
SOUTH CENTRAL WISCONSIN

CITY           SKY/WX    TMP DP  RH WIND       PRES   REMARKS
REEDSBURG      CLOUDY    64  44  47 SW13G22   29.54F
BARABOO/DELLS  CLOUDY    66  42  42 SW12      29.55F
LONE ROCK      NOT AVBL
MINERAL POINT  MOSUNNY   68  46  45 S20       29.58F
MADISON        PTSUNNY   67  46  47 S13G20    29.57F
MIDDLETON      MOSUNNY   68  46  45 SW12      29.57F
WATERTOWN      SUNNY     65  48  54 SW16G26   29.58F
MONROE         SUNNY     66  48  52 S23       29.60F
JANESVILLE     MOSUNNY   70  48  46 S18       29.61F
$$

WIZ051-052-058>065-066-070>072-222100-
SOUTHEAST WISCONSIN

CITY           SKY/WX    TMP DP  RH WIND       PRES   REMARKS
MILWAUKEE      MOSUNNY   70  50  49 SW18G26   29.61F
WAUKESHA       SUNNY     64  48  55 S17G25    29.62F
MILWAUKEE/TIMM SUNNY     66  45  45 SW16G26   29.61F
RACINE         SUNNY     68  49  50 SW14G24   29.63F
KENOSHA        SUNNY     68  51  54 SW15G23   29.63F
FOND DU LAC    SUNNY     65  49  56 S15G21    29.54F
SHEBOYGAN      SUNNY     69  46  43 S22       29.55F
WEST BEND      SUNNY     68  45  42 S20G29    29.57F
JUNEAU         MOSUNNY   64  49  57 S15G26    29.58F
$$

LSZ147-162-222100-
LAKE SUPERIOR

STATION/POSITION TIME  TEMP    WIND        PRES    WAVE
                       AIR SEA DIR/SP/G            HT/PER
                 (UTC) (F)     (DEG/KT/KT) (MB)    (FT/S)
DEVILS ISLAND    1900   35      50/  8/  8 1004.1R
PORT WING        1940   35      30/  8/  9 1003.4S
SAXON HARBOR     1930   37      CALM  /  3 1002.7F
$$

LMZ867-665-643>646-222100-
LAKE MICHIGAN

STATION/POSITION TIME  TEMP    WIND        PRES    WAVE
                       AIR SEA DIR/SP/G            HT/PER
                 (UTC) (F)     (DEG/KT/KT) (MB)    (FT/S)
CHAMBERS ISLAND  1940   54     160/  4/  9 1000.3F
NORTHPORT PIER   1940   44     170/  7/ 13 1001.4F
SISTER BAY       1905   52     140/ 11/ 14   N/A
KEWAUNEE LAKESHO 1842   39     180/ 14/ 15 1001.6F
SHEBOYGAN LAKESH 1900   42     170/ 22/ 23 1001.8F
PORT WASHINGTON  1930   51     180/ 10/ 13 1003.0F
MILWAUKEE LAKESH 1930   64     210/ 17/ 19   N/A
KENOSHA   LAKESH 1900   64     210/ 16/ 20 1004.4
$$

TC  - TEMPERATURE IN CELSIUS
VSB - VISIBILITY IN STATUTE MILES
WCI - WIND CHILL INDEX
HX  - HEAT INDEX




USA.gov is the U.S. government's official web portal to all federal, state and local government web resources and services.